FW8483 Weather Reports


time (UTC)temp
C
wind
direction
speed
KPH
gust
KPH
rain 1hr
cm
rain 24hr
cm
rain mn
cm
humidity
%
barometer
mb
20260903062507 24 151 0.0 0.0 0.00 0.00 0.00 91 1015.6
20260903062011 24 151 0.0 0.0 0.00 0.00 0.00 91 1015.6
20260903061516 24 151 0.0 0.0 0.00 0.00 0.00 91 1015.7
20260903061011 24 151 0.0 0.0 0.00 0.00 0.00 90 1015.7
20260903060508 24 151 0.0 0.0 0.00 0.00 0.00 90 1015.7
20260903060021 24 151 0.0 0.0 0.00 0.00 0.00 90 1015.7
20260903055508 24 151 0.0 0.0 0.00 0.00 0.00 91 1015.7
20260903055011 24 151 0.0 0.0 0.00 0.00 0.00 92 1015.7
20260903054526 24 151 0.0 0.0 0.00 0.00 0.00 92 1015.9
20260903054009 24 151 0.0 0.0 0.00 0.00 0.00 92 1015.9
20260903053508 24 151 0.0 0.0 0.00 0.00 0.00 91 1016.0
20260903053020 24 151 0.0 0.0 0.00 0.00 0.00 92 1016.0
20260903052507 25 151 0.0 0.0 0.00 0.00 0.00 92 1016.1
20260903052012 24 151 0.0 0.0 0.00 0.00 0.00 91 1016.1
20260903051518 24 151 0.0 0.0 0.00 0.00 0.00 92 1016.1
20260903051011 24 151 0.0 0.0 0.00 0.00 0.00 92 1016.0
20260903050508 24 151 0.0 0.0 0.00 0.00 0.00 92 1016.0
20260903050027 24 151 0.0 0.0 0.00 0.00 0.00 92 1015.9
20260903045508 24 46 0.0 0.0 0.00 0.00 0.00 91 1015.8
20260903045009 24 46 0.0 0.0 0.00 0.00 0.00 90 1015.8
20260903044518 25 46 0.0 0.0 0.00 0.00 0.00 91 1015.7
20260903044010 24 46 0.0 0.0 0.00 0.00 0.00 91 1015.7
20260903043512 24 46 0.0 0.0 0.00 0.00 0.00 90 1015.7
20260903043019 24 46 0.0 0.0 0.00 0.00 0.00 91 1015.8
20260903042509 24 46 0.0 0.0 0.00 0.00 0.00 91 1015.7
20260903042007 24 46 0.0 0.0 0.00 0.00 0.00 92 1015.6
20260903041520 25 46 0.0 0.0 0.00 0.00 0.00 92 1015.5
20260903041012 25 46 0.0 0.0 0.00 0.00 0.00 92 1015.6
20260903040511 25 46 0.0 0.0 0.00 0.00 0.00 92 1015.7
20260903040025 25 46 0.0 0.0 0.00 0.00 0.00 92 1015.7
20260903035510 25 46 0.0 0.0 0.00 0.00 0.00 92 1015.7
20260903035010 25 46 0.0 0.0 0.00 0.00 0.00 93 1015.7
20260903034520 25 46 0.0 0.0 0.00 0.00 0.00 93 1015.7
20260903034010 25 46 0.0 0.0 0.00 0.00 0.00 93 1015.7
20260903033509 25 46 0.0 0.0 0.00 0.00 0.00 93 1015.7
20260903033031 25 46 0.0 0.0 0.00 0.00 0.00 92 1015.6
20260903032509 25 46 0.0 0.0 0.00 0.00 0.00 92 1015.6
20260903032009 25 46 0.0 0.0 0.00 0.00 0.00 92 1015.6
20260903031529 25 46 0.0 0.0 0.00 0.00 0.00 91 1015.6
20260903031011 25 46 0.0 0.0 0.00 0.00 0.00 91 1015.6
20260903030515 25 46 0.0 0.0 0.00 0.00 0.00 90 1015.8
20260903030022 25 46 0.0 0.0 0.00 0.00 0.00 90 1015.9
20260903025513 25 46 0.0 0.0 0.00 0.00 0.00 90 1015.9
20260903025012 25 46 0.0 0.0 0.00 0.00 0.00 89 1016.0
20260903024521 25 46 0.0 0.0 0.00 0.00 0.00 90 1016.0
20260903024010 25 46 0.0 0.0 0.00 0.00 0.00 90 1016.0
20260903023510 25 46 0.0 0.0 0.00 0.00 0.00 89 1016.0
20260903023021 25 46 0.0 0.0 0.00 0.00 0.00 89 1016.1
20260903022511 26 46 0.0 0.0 0.00 0.00 0.00 89 1016.0
20260903022007 26 46 0.0 0.0 0.00 0.00 0.00 88 1016.0
20260903021507 26 46 0.0 0.0 0.00 0.00 0.00 88 1015.9
20260903021002 26 46 0.0 0.0 0.00 0.00 0.00 87 1015.8
20260903020503 26 46 0.0 0.0 0.00 0.00 0.00 86 1015.7
20260903020008 26 46 0.0 0.0 0.00 0.00 0.00 86 1015.6
20260903015504 26 46 0.0 0.0 0.00 0.00 0.00 85 1015.5
20260903015004 26 46 0.0 0.0 0.00 0.00 0.00 83 1015.5
20260903014514 26 46 0.0 0.0 0.00 0.00 0.00 83 1015.4
20260903014007 26 46 0.0 0.0 0.00 0.00 0.00 83 1015.4
20260903013510 26 46 0.0 0.0 0.00 0.00 0.00 83 1015.4
20260903013022 26 46 0.0 0.0 0.00 0.00 0.00 83 1015.4
20260903012511 27 46 0.0 0.0 0.00 0.00 0.00 81 1015.4
20260903012011 27 46 0.0 0.0 0.00 0.00 0.00 82 1015.4
20260903011504 27 46 0.0 0.0 0.00 0.00 0.00 78 1015.4
20260903011004 27 46 0.0 0.0 0.00 0.00 0.00 79 1015.3
20260903010502 28 46 0.0 0.0 0.00 0.00 0.00 79 1015.4
20260903010004 28 46 0.0 0.0 0.00 0.00 0.00 77 1015.4
20260903005504 28 46 0.0 0.0 0.00 0.00 0.00 77 1015.4
20260903005003 28 46 0.0 0.0 0.00 0.00 0.00 75 1015.5
20260903004516 28 46 0.0 0.0 0.00 0.00 0.00 74 1015.5
20260903004009 28 46 0.0 0.0 0.00 0.00 0.00 73 1015.4
20260903003507 29 46 0.0 0.0 0.00 0.00 0.00 73 1015.4
20260903003019 29 46 0.0 0.0 0.00 0.00 0.00 72 1015.4
20260903002510 29 46 0.0 0.0 0.00 0.00 0.00 71 1015.4
20260903002011 30 46 0.0 0.0 0.00 0.00 0.00 70 1015.3
20260903001524 30 46 0.0 0.0 0.00 0.00 0.00 70 1015.2
20260903001012 30 46 0.0 0.0 0.00 0.00 0.00 69 1015.2
20260903000503 30 46 0.0 0.0 0.00 0.00 0.00 68 1015.2
20260903000005 30 71 0.0 0.0 0.00 0.00 0.00 67 1015.1
20260902235503 30 78 0.0 0.0 0.00 0.00 0.00 69 1015.2
20260902235004 31 78 0.0 0.0 0.00 0.00 0.00 68 1015.2
20260902234514 31 78 0.0 0.0 0.00 0.00 0.00 68 1015.2
20260902234006 31 74 0.0 1.6 0.00 0.00 0.00 68 1015.1
20260902233506 31 74 0.0 9.7 0.00 0.00 0.00 68 1015.0
20260902233016 31 90 3.2 9.7 0.00 0.00 0.00 68 1014.9
20260902232507 31 86 0.0 4.8 0.00 0.00 0.00 66 1014.9
20260902232011 32 78 1.6 4.8 0.00 0.00 0.00 65 1014.7
20260902231524 32 84 0.0 4.8 0.00 0.00 0.00 65 1014.7
20260902231014 32 79 1.6 4.8 0.00 0.00 0.00 65 1014.7
20260902230513 32 71 0.0 3.2 0.00 0.00 0.00 64 1014.8
20260902230028 32 87 0.0 6.4 0.00 0.00 0.00 64 1014.8
20260902225503 32 94 3.2 6.4 0.00 0.00 0.00 61 1014.9
20260902225004 32 83 1.6 6.4 0.00 0.00 0.00 63 1014.9
20260902224506 32 91 1.6 6.4 0.00 0.00 0.00 60 1014.9
20260902224005 32 126 3.2 12.9 0.00 0.00 0.00 59 1014.8
20260902223503 33 73 4.8 16.1 0.00 0.00 0.00 59 1014.8
20260902223016 33 83 8.0 16.1 0.00 0.00 0.00 57 1014.8
20260902222509 33 108 9.7 14.5 0.00 0.00 0.00 56 1014.9
20260902222013 33 86 9.7 14.5 0.00 0.00 0.00 56 1014.9
20260902221522 33 68 8.0 14.5 0.00 0.00 0.00 56 1014.9
20260902221010 33 75 6.4 14.5 0.00 0.00 0.00 56 1014.9
20260902220515 33 84 6.4 14.5 0.00 0.00 0.00 57 1014.9
20260902220028 33 103 6.4 14.5 0.00 0.00 0.00 55 1015.0
20260902215520 33 85 8.0 19.3 0.00 0.00 0.00 54 1015.0
20260902215013 33 74 11.3 19.3 0.00 0.00 0.00 54 1015.1
20260902214506 33 92 8.0 14.5 0.00 0.00 0.00 54 1015.1
20260902214005 33 87 8.0 14.5 0.00 0.00 0.00 55 1015.1
20260902213505 33 74 6.4 12.9 0.00 0.00 0.00 55 1015.1
20260902213014 33 98 6.4 14.5 0.00 0.00 0.00 57 1015.1
20260902212507 33 70 4.8 12.9 0.00 0.00 0.00 55 1015.1
20260902212009 33 84 6.4 12.9 0.00 0.00 0.00 57 1015.1
20260902211520 33 26 4.8 11.3 0.00 0.00 0.00 56 1015.2
20260902211009 33 80 4.8 12.9 0.00 0.00 0.00 58 1015.2
20260902210509 33 51 9.7 17.7 0.00 0.00 0.00 1015.4
20260902210041 33 82 8.0 17.7 0.00 0.00 0.00 1015.4
20260902205514 34 30 9.7 16.1 0.00 0.00 0.00 55 1015.3
20260902205016 34 53 4.8 9.7 0.00 0.00 0.00 55 1015.3
20260902204528 33 17 4.8 12.9 0.00 0.00 0.00 54 1015.4
20260902204003 33 27 4.8 14.5 0.00 0.00 0.00 54 1015.5
20260902203505 33 57 4.8 16.1 0.00 0.00 0.00 57 1015.5
20260902203013 33 40 9.7 16.1 0.00 0.00 0.00 57 1015.5
20260902202507 33 65 6.4 16.1 0.00 0.00 0.00 54 1015.5
20260902202006 33 96 9.7 19.3 0.00 0.00 0.00 56 1015.6
20260902201531 33 88 11.3 19.3 0.00 0.00 0.00 56 1015.5
20260902201016 33 48 8.0 17.7 0.00 0.00 0.00 57 1015.6
20260902200508 33 29 0.0 11.3 0.00 0.00 0.00 56 1015.6
20260902200032 33 9 4.8 14.5 0.00 0.00 0.00 56 1015.8
20260902195514 33 97 8.0 16.1 0.00 0.00 0.00 57 1015.8
20260902195012 33 86 8.0 20.9 0.00 0.00 0.00 56 1015.9
20260902194536 33 66 6.4 20.9 0.00 0.00 0.00 58 1016.0
20260902194018 33 82 11.3 20.9 0.00 0.00 0.00 56 1016.1
20260902193514 33 42 4.8 14.5 0.00 0.00 0.00 56 1016.1
20260902193010 33 10 6.4 14.5 0.00 0.00 0.00 58 1016.2
20260902192504 33 115 9.7 17.7 0.00 0.00 0.00 57 1016.2
20260902192008 33 29 6.4 17.7 0.00 0.00 0.00 57 1016.3
20260902191518 33 97 4.8 11.3 0.00 0.00 0.00 60 1016.3
20260902191010 33 50 3.2 11.3 0.00 0.00 0.00 57 1016.5
20260902190509 33 88 4.8 9.7 0.00 0.00 0.00 60 1016.5
20260902190025 32 40 3.2 14.5 0.00 0.00 0.00 62 1016.6
20260902185515 32 94 6.4 14.5 0.00 0.00 0.00 60 1016.6
20260902185012 32 82 4.8 14.5 0.00 0.00 0.00 59 1016.7
20260902184527 32 54 8.0 17.7 0.00 0.00 0.00 59 1016.8
20260902184014 33 74 4.8 17.7 0.00 0.00 0.00 56 1016.8
20260902183516 33 106 8.0 12.9 0.00 0.00 0.00 59 1016.8
20260902183030 33 98 6.4 16.1 0.00 0.00 0.00 61 1016.8
20260902182516 32 92 4.8 16.1 0.00 0.00 0.00 59 1016.9
20260902182005 32 79 9.7 16.1 0.00 0.00 0.00 63 1017.0
20260902181513 32 105 9.7 16.1 0.00 0.00 0.00 64 1017.0
20260902181007 32 69 6.4 14.5 0.00 0.00 0.00 64 1017.0
20260902180507 32 94 8.0 11.3 0.00 0.00 0.00 63 1017.1
20260902180023 32 31 3.2 16.1 0.00 0.00 0.00 63 1017.1
20260902175510 32 64 6.4 20.9 0.00 0.00 0.00 62 1017.2
20260902175013 32 116 11.3 20.9 0.00 0.00 0.00 61 1017.2
20260902174527 32 128 4.8 17.7 0.00 0.00 0.00 64 1017.3
20260902174013 32 100 6.4 17.7 0.00 0.00 0.00 64 1017.4
20260902173515 32 113 14.5 17.7 0.00 0.00 0.00 62 1017.4
20260902173037 32 71 6.4 14.5 0.00 0.00 0.00 63 1017.4
20260902172519 31 57 4.8 12.9 0.00 0.00 0.00 68 1017.5
20260902172018 31 110 8.0 12.9 0.00 0.00 0.00 65 1017.6
20260902171509 31 352 4.8 14.5 0.00 0.00 0.00 64 1017.7
20260902171003 32 29 6.4 14.5 0.00 0.00 0.00 63 1017.7
20260902170508 32 43 4.8 17.7 0.00 0.00 0.00 63 1017.9
20260902170017 32 9 6.4 17.7 0.00 0.00 0.00 62 1017.9
20260902165510 32 37 9.7 17.7 0.00 0.00 0.00 66 1017.9
20260902165013 31 101 6.4 17.7 0.00 0.00 0.00 65 1018.0
20260902164530 31 42 6.4 19.3 0.00 0.00 0.00 66 1018.1
20260902164012 32 81 16.1 19.3 0.00 0.00 0.00 67 1018.1
20260902163513 32 91 9.7 19.3 0.00 0.00 0.00 67 1018.1
20260902163003 32 101 12.9 19.3 0.00 0.00 0.00 68 1018.2
20260902162504 31 53 6.4 17.7 0.00 0.00 0.00 70 1018.2
20260902162004 31 35 8.0 19.3 0.00 0.00 0.00 69 1018.4
20260902161509 31 66 6.4 19.3 0.00 0.00 0.00 71 1018.5
20260902161006 31 59 11.3 19.3 0.00 0.00 0.00 70 1018.5
20260902160503 31 80 6.4 12.9 0.00 0.00 0.00 69 1018.6
20260902160013 31 54 1.6 12.9 0.00 0.00 0.00 70 1018.6
20260902155509 31 76 6.4 11.3 0.00 0.00 0.00 72 1018.6
20260902155008 31 347 4.8 9.7 0.00 0.00 0.00 70 1018.6
20260902154521 31 46 4.8 9.7 0.00 0.00 0.00 72 1018.6
20260902154011 31 88 1.6 16.1 0.00 0.00 0.00 76 1018.7
20260902153512 30 316 3.2 16.1 0.00 0.00 0.00 76 1018.7
20260902153029 30 9 1.6 16.1 0.00 0.00 0.00 74 1018.7
20260902152513 30 334 6.4 16.1 0.00 0.00 0.00 75 1018.7
20260902152006 30 63 6.4 12.9 0.00 0.00 0.00 74 1018.6
20260902151508 30 59 3.2 14.5 0.00 0.00 0.00 77 1018.6
20260902151005 30 17 4.8 14.5 0.00 0.00 0.00 77 1018.6
20260902150508 30 352 8.0 14.5 0.00 0.00 0.00 78 1018.5
20260902150012 29 61 4.8 14.5 0.00 0.00 0.00 81 1018.4
20260902145506 29 9 9.7 16.1 0.00 0.00 0.00 79 1018.3
20260902145011 29 44 6.4 16.1 0.00 0.00 0.00 83 1018.3
20260902144533 29 65 9.7 16.1 0.00 0.00 0.00 81 1018.2
20260902144011 28 352 3.2 11.3 0.00 0.00 0.00 83 1018.2
20260902143512 28 349 4.8 12.9 0.00 0.00 0.00 83 1018.3
20260902143028 28 331 4.8 12.9 0.00 0.00 0.00 84 1018.2
20260902142514 28 28 6.4 9.7 0.00 0.00 0.00 84 1018.3
20260902142014 28 327 4.8 9.7 0.00 0.00 0.00 87 1018.2
20260902141535 27 17 1.6 8.0 0.00 0.00 0.00 86 1018.3
20260902141003 27 52 1.6 9.7 0.00 0.00 0.00 86 1018.3
20260902140504 28 5 4.8 9.7 0.00 0.00 0.00 85 1018.3
20260902140012 28 32 6.4 9.7 0.00 0.00 0.00 84 1018.2
20260902135504 28 352 4.8 9.7 0.00 0.00 0.00 85 1018.3
20260902135008 28 40 4.8 9.7 0.00 0.00 0.00 85 1018.3
20260902134518 28 352 4.8 8.0 0.00 0.00 0.00 85 1018.3
20260902134009 28 298 0.0 8.0 0.00 0.00 0.00 86 1018.3
20260902133516 27 352 3.2 8.0 0.00 0.00 0.00 86 1018.3
20260902133025 27 318 0.0 6.4 0.00 0.00 0.00 88 1018.3
20260902132516 27 11 3.2 8.0 0.00 0.00 0.00 88 1018.3
20260902132011 27 34 4.8 8.0 0.00 0.00 0.00 89 1018.4
20260902131542 27 40 4.8 8.0 0.00 0.00 0.00 89 1018.4
20260902131015 27 46 1.6 6.4 0.00 0.00 0.00 91 1018.3
20260902130503 26 43 1.6 6.4 0.00 0.00 0.00 92 1018.4
20260902130008 26 69 3.2 6.4 0.00 0.00 0.00 93 1018.3
20260902125506 26 85 4.8 6.4 0.00 0.00 0.00 93 1018.4
20260902125006 26 72 3.2 6.4 0.00 0.00 0.00 93 1018.4
20260902124516 26 81 3.2 4.8 0.00 0.00 0.00 94 1018.4
20260902124009 25 81 0.0 3.2 0.00 0.00 0.00 95 1018.4
20260902123509 25 65 0.0 0.0 0.00 0.00 0.00 95 1018.4
20260902123023 25 78 0.0 0.0 0.00 0.00 0.00 96 1018.3
20260902122514 25 78 0.0 0.0 0.00 0.00 0.00 96 1018.2
20260902122011 25 78 0.0 0.0 0.00 0.00 0.00 97 1018.2
20260902121528 24 40 0.0 0.0 0.00 0.00 0.00 97 1018.2
20260902121014 24 56 0.0 0.0 0.00 0.00 0.00 97 1018.1
20260902120516 24 49 0.0 0.0 0.00 0.00 0.00 97 1018.0
20260902120031 24 49 0.0 0.0 0.00 0.00 0.00 97 1018.0
20260902115505 23 40 0.0 0.0 0.00 0.00 0.00 97 1017.9
20260902115006 23 46 0.0 0.0 0.00 0.00 0.00 97 1017.9
20260902114519 23 49 0.0 0.0 0.00 0.00 0.00 97 1018.0
20260902114010 23 39 0.0 0.0 0.00 0.00 0.00 97 1018.0
20260902113509 23 39 0.0 0.0 0.00 0.00 0.00 97 1018.0
20260902113020 23 38 0.0 0.0 0.00 0.00 0.00 97 1017.9
20260902112513 23 51 0.0 0.0 0.00 0.00 0.00 97 1017.9
20260902112011 23 55 0.0 0.0 0.00 0.00 0.00 97 1017.9
20260902111527 23 55 0.0 0.0 0.00 0.00 0.00 97 1017.9
20260902111012 23 130 0.0 0.0 0.00 0.00 0.00 97 1017.8
20260902110515 23 130 0.0 0.0 0.00 0.00 0.00 97 1017.7
20260902110030 23 130 0.0 0.0 0.00 0.00 0.00 97 1017.7
20260902105516 23 130 0.0 0.0 0.00 0.00 0.00 97 1017.6
20260902105016 23 130 0.0 0.0 0.00 0.00 0.00 97 1017.5
20260902104517 23 130 0.0 0.0 0.00 0.00 0.00 97 1017.5
20260902104007 23 130 0.0 0.0 0.00 0.00 0.00 97 1017.5
20260902103509 23 130 0.0 0.0 0.00 0.00 0.00 97 1017.6
20260902103019 23 130 0.0 0.0 0.00 0.00 0.00 96 1017.6
20260902102510 23 130 0.0 0.0 0.00 0.00 0.00 96 1017.6
20260902102011 23 130 0.0 0.0 0.00 0.00 0.00 97 1017.6
20260902101527 23 130 0.0 0.0 0.00 0.00 0.00 97 1017.5
20260902101014 23 130 0.0 0.0 0.00 0.00 0.00 97 1017.4
20260902100515 23 130 0.0 0.0 0.00 0.00 0.00 97 1017.4
20260902100029 23 130 0.0 0.0 0.00 0.00 0.00 97 1017.3
20260902095517 23 130 0.0 0.0 0.00 0.00 0.00 97 1017.3
20260902095017 23 130 0.0 0.0 0.00 0.00 0.00 97 1017.2
20260902094533 23 130 0.0 0.0 0.00 0.00 0.00 97 1017.1
20260902094016 23 130 0.0 0.0 0.00 0.00 0.00 96 1017.0
20260902093508 23 130 0.0 0.0 0.00 0.00 0.00 96 1017.0
20260902093016 23 130 0.0 0.0 0.00 0.00 0.00 96 1016.9
20260902092512 23 130 0.0 0.0 0.00 0.00 0.00 96 1016.8
20260902092012 23 130 0.0 0.0 0.00 0.00 0.00 97 1016.7
20260902091554 23 130 0.0 0.0 0.00 0.00 0.00 97 1016.6
20260902091013 23 130 0.0 0.0 0.00 0.00 0.00 97 1016.7
20260902090513 23 130 0.0 0.0 0.00 0.00 0.00 96 1016.8
20260902090029 23 130 0.0 0.0 0.00 0.00 0.00 96 1016.8
20260902085514 23 130 0.0 0.0 0.00 0.00 0.00 96 1016.7
20260902085014 23 130 0.0 0.0 0.00 0.00 0.00 96 1016.7
20260902084535 23 130 0.0 0.0 0.00 0.00 0.00 96 1016.7
20260902084015 23 130 0.0 0.0 0.00 0.00 0.00 96 1016.6
20260902083519 23 130 0.0 0.0 0.00 0.00 0.00 96 1016.6
20260902083031 23 130 0.0 0.0 0.00 0.00 0.00 96 1016.6
20260902082508 23 130 0.0 0.0 0.00 0.00 0.00 96 1016.5
20260902082008 23 130 0.0 0.0 0.00 0.00 0.00 96 1016.5
20260902081530 23 130 0.0 0.0 0.00 0.00 0.00 96 1016.6
20260902081009 24 130 0.0 0.0 0.00 0.00 0.00 96 1016.6
20260902080513 24 130 0.0 0.0 0.00 0.00 0.00 96 1016.6
20260902080035 24 130 0.0 0.0 0.00 0.00 0.00 96 1016.6
20260902075510 24 130 0.0 0.0 0.00 0.00 0.00 96 1016.7
20260902075016 24 130 0.0 0.0 0.00 0.00 0.00 96 1016.8
20260902074510 24 130 0.0 0.0 0.00 0.00 0.00 96 1016.9
20260902074004 24 130 0.0 0.0 0.00 0.00 0.00 96 1016.8
20260902073506 24 130 0.0 0.0 0.00 0.00 0.00 96 1016.8
20260902073015 24 130 0.0 0.0 0.00 0.00 0.00 96 1016.9
20260902072507 24 130 0.0 0.0 0.00 0.00 0.00 96 1016.8
20260902072007 24 130 0.0 0.0 0.00 0.00 0.00 96 1016.8
20260902071545 24 130 0.0 0.0 0.00 0.00 0.00 96 1016.8
20260902071012 24 130 0.0 0.0 0.00 0.00 0.00 96 1016.7
20260902070511 24 130 0.0 0.0 0.00 0.00 0.00 96 1016.6
20260902070027 24 130 0.0 0.0 0.00 0.00 0.00 96 1016.6
20260902065518 24 130 0.0 0.0 0.00 0.00 0.00 95 1016.6
20260902065014 24 130 0.0 0.0 0.00 0.00 0.00 95 1016.6
20260902064531 24 130 0.0 0.0 0.00 0.00 0.00 96 1016.7
20260902064018 24 130 0.0 0.0 0.00 0.00 0.00 96 1016.8
20260902063503 24 130 0.0 0.0 0.00 0.00 0.00 96 1016.9
20260902063019 24 130 0.0 0.0 0.00 0.00 0.00 96 1016.9